Portada
METAR-TAF:

METAR-TAF

Aeroports :

Casino, Austràlia

latitud: 28-52-39S, longitud: 153-03-07E, altitud: 21 m

Observació

L'informe es va fer fa 58 minuts, a les 23:00 UTC
Vent 8 kt del Nord
Temperatura 24°C
Humitat 65%
Pressió 1018 hPa

METAR: YCAS 192300Z AUTO 36008KT //// // ////// 24/17 Q1018

Hora: 10:58 (23:58 UTC)


TAF: manca

Observacions i pronòstics meteorològics de més de 4000 aeroports (METAR i TAF).

Les estacions disponibles són els punts grocs i vermells al mapa.

Posi el ratolí al punt desitjat per veure el nom de l'estació.

Feu clic per veure les observacions i els pronòstics meteorològics.

Per canviar el mapa: feu clic els botons verds amb una creu de color negre per apropar; al botó verd amb un guió per allunyar la imatge; o en les fletxes verdes per a mapes adjacents.


METAR-TAF: